Index of /20260412/WXO-DD/model_gdps/15km/00/042
Name Last modified Size Description
Parent Directory -
20260412T00Z_MSC_GDPS_AbsoluteVorticity_IsbL-0200_LatLon0.15_PT042H.grib2 2026-04-12 04:23 1.2M
20260412T00Z_MSC_GDPS_AbsoluteVorticity_IsbL-0250_LatLon0.15_PT042H.grib2 2026-04-12 04:23 1.3M
20260412T00Z_MSC_GDPS_AbsoluteVorticity_IsbL-0500_LatLon0.15_PT042H.grib2 2026-04-12 04:23 1.2M
20260412T00Z_MSC_GDPS_AbsoluteVorticity_IsbL-0700_LatLon0.15_PT042H.grib2 2026-04-12 04:23 1.3M
20260412T00Z_MSC_GDPS_AbsoluteVorticity_IsbL-0850_LatLon0.15_PT042H.grib2 2026-04-12 04:23 1.6M
20260412T00Z_MSC_GDPS_AirTemp-Max_AGL-2m_LatLon0.15_PT042H.grib2 2026-04-12 04:23 747K
20260412T00Z_MSC_GDPS_AirTemp-Min_AGL-2m_LatLon0.15_PT042H.grib2 2026-04-12 04:23 794K
20260412T00Z_MSC_GDPS_AirTemp_AGL-120m_LatLon0.15_PT042H.grib2 2026-04-12 04:23 910K
20260412T00Z_MSC_GDPS_AirTemp_AGL-2m_LatLon0.15_PT042H.grib2 2026-04-12 04:23 1.0M
20260412T00Z_MSC_GDPS_AirTemp_AGL-40m_LatLon0.15_PT042H.grib2 2026-04-12 04:23 934K
20260412T00Z_MSC_GDPS_AirTemp_AGL-80m_LatLon0.15_PT042H.grib2 2026-04-12 04:23 921K
20260412T00Z_MSC_GDPS_AirTemp_IsbL-0001_LatLon0.15_PT042H.grib2 2026-04-12 04:23 636K
20260412T00Z_MSC_GDPS_AirTemp_IsbL-0005_LatLon0.15_PT042H.grib2 2026-04-12 04:23 684K
20260412T00Z_MSC_GDPS_AirTemp_IsbL-0010_LatLon0.15_PT042H.grib2 2026-04-12 04:23 761K
20260412T00Z_MSC_GDPS_AirTemp_IsbL-0020_LatLon0.15_PT042H.grib2 2026-04-12 04:23 707K
20260412T00Z_MSC_GDPS_AirTemp_IsbL-0030_LatLon0.15_PT042H.grib2 2026-04-12 04:23 752K
20260412T00Z_MSC_GDPS_AirTemp_IsbL-0050_LatLon0.15_PT042H.grib2 2026-04-12 04:23 820K
20260412T00Z_MSC_GDPS_AirTemp_IsbL-0100_LatLon0.15_PT042H.grib2 2026-04-12 04:23 959K
20260412T00Z_MSC_GDPS_AirTemp_IsbL-0150_LatLon0.15_PT042H.grib2 2026-04-12 04:23 1.0M
20260412T00Z_MSC_GDPS_AirTemp_IsbL-0175_LatLon0.15_PT042H.grib2 2026-04-12 04:23 963K
20260412T00Z_MSC_GDPS_AirTemp_IsbL-0200_LatLon0.15_PT042H.grib2 2026-04-12 04:23 1.0M
20260412T00Z_MSC_GDPS_AirTemp_IsbL-0225_LatLon0.15_PT042H.grib2 2026-04-12 04:23 1.0M
20260412T00Z_MSC_GDPS_AirTemp_IsbL-0250_LatLon0.15_PT042H.grib2 2026-04-12 04:23 1.0M
20260412T00Z_MSC_GDPS_AirTemp_IsbL-0275_LatLon0.15_PT042H.grib2 2026-04-12 04:23 950K
20260412T00Z_MSC_GDPS_AirTemp_IsbL-0300_LatLon0.15_PT042H.grib2 2026-04-12 04:23 958K
20260412T00Z_MSC_GDPS_AirTemp_IsbL-0350_LatLon0.15_PT042H.grib2 2026-04-12 04:23 932K
20260412T00Z_MSC_GDPS_AirTemp_IsbL-0400_LatLon0.15_PT042H.grib2 2026-04-12 04:23 945K
20260412T00Z_MSC_GDPS_AirTemp_IsbL-0450_LatLon0.15_PT042H.grib2 2026-04-12 04:23 966K
20260412T00Z_MSC_GDPS_AirTemp_IsbL-0500_LatLon0.15_PT042H.grib2 2026-04-12 04:23 1.0M
20260412T00Z_MSC_GDPS_AirTemp_IsbL-0550_LatLon0.15_PT042H.grib2 2026-04-12 04:23 1.0M
20260412T00Z_MSC_GDPS_AirTemp_IsbL-0600_LatLon0.15_PT042H.grib2 2026-04-12 04:23 898K
20260412T00Z_MSC_GDPS_AirTemp_IsbL-0650_LatLon0.15_PT042H.grib2 2026-04-12 04:23 922K
20260412T00Z_MSC_GDPS_AirTemp_IsbL-0700_LatLon0.15_PT042H.grib2 2026-04-12 04:23 956K
20260412T00Z_MSC_GDPS_AirTemp_IsbL-0750_LatLon0.15_PT042H.grib2 2026-04-12 04:23 1.0M
20260412T00Z_MSC_GDPS_AirTemp_IsbL-0800_LatLon0.15_PT042H.grib2 2026-04-12 04:23 1.1M
20260412T00Z_MSC_GDPS_AirTemp_IsbL-0850_LatLon0.15_PT042H.grib2 2026-04-12 04:23 1.1M
20260412T00Z_MSC_GDPS_AirTemp_IsbL-0875_LatLon0.15_PT042H.grib2 2026-04-12 04:23 1.1M
20260412T00Z_MSC_GDPS_AirTemp_IsbL-0900_LatLon0.15_PT042H.grib2 2026-04-12 04:23 1.1M
20260412T00Z_MSC_GDPS_AirTemp_IsbL-0925_LatLon0.15_PT042H.grib2 2026-04-12 04:23 1.1M
20260412T00Z_MSC_GDPS_AirTemp_IsbL-0950_LatLon0.15_PT042H.grib2 2026-04-12 04:23 1.1M
20260412T00Z_MSC_GDPS_AirTemp_IsbL-0970_LatLon0.15_PT042H.grib2 2026-04-12 04:23 1.1M
20260412T00Z_MSC_GDPS_AirTemp_IsbL-0985_LatLon0.15_PT042H.grib2 2026-04-12 04:23 1.1M
20260412T00Z_MSC_GDPS_AirTemp_IsbL-1000_LatLon0.15_PT042H.grib2 2026-04-12 04:23 1.1M
20260412T00Z_MSC_GDPS_AirTemp_IsbL-1015_LatLon0.15_PT042H.grib2 2026-04-12 04:23 1.1M
20260412T00Z_MSC_GDPS_Albedo_Sfc_LatLon0.15_PT042H.grib2 2026-04-12 04:23 251K
20260412T00Z_MSC_GDPS_CAPE_Sfc_LatLon0.15_PT042H.grib2 2026-04-12 04:23 3.7M
20260412T00Z_MSC_GDPS_CIN_Sfc_LatLon0.15_PT042H.grib2 2026-04-12 04:23 2.8M
20260412T00Z_MSC_GDPS_CloudWater_EAtm_LatLon0.15_PT042H.grib2 2026-04-12 04:23 524K
20260412T00Z_MSC_GDPS_ConvectivePrecip-Accum_Sfc_LatLon0.15_PT042H.grib2 2026-04-12 04:23 2.5M
20260412T00Z_MSC_GDPS_DewPointDepression_AGL-2m_LatLon0.15_PT042H.grib2 2026-04-12 04:23 754K
20260412T00Z_MSC_GDPS_DewPointDepression_IsbL-0010_LatLon0.15_PT042H.grib2 2026-04-12 04:23 2.6K
20260412T00Z_MSC_GDPS_DewPointDepression_IsbL-0020_LatLon0.15_PT042H.grib2 2026-04-12 04:23 48K
20260412T00Z_MSC_GDPS_DewPointDepression_IsbL-0030_LatLon0.15_PT042H.grib2 2026-04-12 04:23 69K
20260412T00Z_MSC_GDPS_DewPointDepression_IsbL-0050_LatLon0.15_PT042H.grib2 2026-04-12 04:23 352K
20260412T00Z_MSC_GDPS_DewPointDepression_IsbL-0100_LatLon0.15_PT042H.grib2 2026-04-12 04:23 374K
20260412T00Z_MSC_GDPS_DewPointDepression_IsbL-0150_LatLon0.15_PT042H.grib2 2026-04-12 04:23 449K
20260412T00Z_MSC_GDPS_DewPointDepression_IsbL-0175_LatLon0.15_PT042H.grib2 2026-04-12 04:23 522K
20260412T00Z_MSC_GDPS_DewPointDepression_IsbL-0200_LatLon0.15_PT042H.grib2 2026-04-12 04:23 620K
20260412T00Z_MSC_GDPS_DewPointDepression_IsbL-0225_LatLon0.15_PT042H.grib2 2026-04-12 04:23 762K
20260412T00Z_MSC_GDPS_DewPointDepression_IsbL-0250_LatLon0.15_PT042H.grib2 2026-04-12 04:23 867K
20260412T00Z_MSC_GDPS_DewPointDepression_IsbL-0275_LatLon0.15_PT042H.grib2 2026-04-12 04:23 892K
20260412T00Z_MSC_GDPS_DewPointDepression_IsbL-0300_LatLon0.15_PT042H.grib2 2026-04-12 04:23 933K
20260412T00Z_MSC_GDPS_DewPointDepression_IsbL-0350_LatLon0.15_PT042H.grib2 2026-04-12 04:23 967K
20260412T00Z_MSC_GDPS_DewPointDepression_IsbL-0400_LatLon0.15_PT042H.grib2 2026-04-12 04:23 1.0M
20260412T00Z_MSC_GDPS_DewPointDepression_IsbL-0450_LatLon0.15_PT042H.grib2 2026-04-12 04:23 1.0M
20260412T00Z_MSC_GDPS_DewPointDepression_IsbL-0500_LatLon0.15_PT042H.grib2 2026-04-12 04:23 1.0M
20260412T00Z_MSC_GDPS_DewPointDepression_IsbL-0550_LatLon0.15_PT042H.grib2 2026-04-12 04:23 1.0M
20260412T00Z_MSC_GDPS_DewPointDepression_IsbL-0600_LatLon0.15_PT042H.grib2 2026-04-12 04:23 1.0M
20260412T00Z_MSC_GDPS_DewPointDepression_IsbL-0650_LatLon0.15_PT042H.grib2 2026-04-12 04:23 1.1M
20260412T00Z_MSC_GDPS_DewPointDepression_IsbL-0700_LatLon0.15_PT042H.grib2 2026-04-12 04:23 1.1M
20260412T00Z_MSC_GDPS_DewPointDepression_IsbL-0750_LatLon0.15_PT042H.grib2 2026-04-12 04:23 1.1M
20260412T00Z_MSC_GDPS_DewPointDepression_IsbL-0800_LatLon0.15_PT042H.grib2 2026-04-12 04:23 1.2M
20260412T00Z_MSC_GDPS_DewPointDepression_IsbL-0850_LatLon0.15_PT042H.grib2 2026-04-12 04:23 1.2M
20260412T00Z_MSC_GDPS_DewPointDepression_IsbL-0875_LatLon0.15_PT042H.grib2 2026-04-12 04:23 1.1M
20260412T00Z_MSC_GDPS_DewPointDepression_IsbL-0900_LatLon0.15_PT042H.grib2 2026-04-12 04:23 1.1M
20260412T00Z_MSC_GDPS_DewPointDepression_IsbL-0925_LatLon0.15_PT042H.grib2 2026-04-12 04:23 1.0M
20260412T00Z_MSC_GDPS_DewPointDepression_IsbL-0950_LatLon0.15_PT042H.grib2 2026-04-12 04:23 1.0M
20260412T00Z_MSC_GDPS_DewPointDepression_IsbL-0970_LatLon0.15_PT042H.grib2 2026-04-12 04:23 1.0M
20260412T00Z_MSC_GDPS_DewPointDepression_IsbL-0985_LatLon0.15_PT042H.grib2 2026-04-12 04:23 1.0M
20260412T00Z_MSC_GDPS_DewPointDepression_IsbL-1000_LatLon0.15_PT042H.grib2 2026-04-12 04:23 972K
20260412T00Z_MSC_GDPS_DewPointDepression_IsbL-1015_LatLon0.15_PT042H.grib2 2026-04-12 04:23 910K
20260412T00Z_MSC_GDPS_DewPoint_AGL-2m_LatLon0.15_PT042H.grib2 2026-04-12 04:23 613K
20260412T00Z_MSC_GDPS_DownwardLongwaveRadiationFlux-Accum_Sfc_LatLon0.15_PT042H.grib2 2026-04-12 04:23 753K
20260412T00Z_MSC_GDPS_DownwardShortwaveRadiationFlux-Accum_NTAtm_LatLon0.15_PT042H.grib2 2026-04-12 04:23 314K
20260412T00Z_MSC_GDPS_DownwardShortwaveRadiationFlux-Accum_Sfc_LatLon0.15_PT042H.grib2 2026-04-12 04:23 1.0M
20260412T00Z_MSC_GDPS_FreezingRain-Accum12h_Sfc_LatLon0.15_PT042H.grib2 2026-04-12 04:23 45K
20260412T00Z_MSC_GDPS_FreezingRain-Accum1h_Sfc_LatLon0.15_PT042H.grib2 2026-04-12 04:23 25K
20260412T00Z_MSC_GDPS_FreezingRain-Accum24h_Sfc_LatLon0.15_PT042H.grib2 2026-04-12 04:23 71K
20260412T00Z_MSC_GDPS_FreezingRain-Accum3h_Sfc_LatLon0.15_PT042H.grib2 2026-04-12 04:23 25K
20260412T00Z_MSC_GDPS_FreezingRain-Accum6h_Sfc_LatLon0.15_PT042H.grib2 2026-04-12 04:23 33K
20260412T00Z_MSC_GDPS_FreezingRain-Accum_Sfc_LatLon0.15_PT042H.grib2 2026-04-12 04:23 147K
20260412T00Z_MSC_GDPS_GeopotentialHeight_IsbL-0001_LatLon0.15_PT042H.grib2 2026-04-12 04:23 541K
20260412T00Z_MSC_GDPS_GeopotentialHeight_IsbL-0005_LatLon0.15_PT042H.grib2 2026-04-12 04:23 448K
20260412T00Z_MSC_GDPS_GeopotentialHeight_IsbL-0010_LatLon0.15_PT042H.grib2 2026-04-12 04:23 584K
20260412T00Z_MSC_GDPS_GeopotentialHeight_IsbL-0020_LatLon0.15_PT042H.grib2 2026-04-12 04:23 584K
20260412T00Z_MSC_GDPS_GeopotentialHeight_IsbL-0030_LatLon0.15_PT042H.grib2 2026-04-12 04:23 587K
20260412T00Z_MSC_GDPS_GeopotentialHeight_IsbL-0050_LatLon0.15_PT042H.grib2 2026-04-12 04:23 515K
20260412T00Z_MSC_GDPS_GeopotentialHeight_IsbL-0100_LatLon0.15_PT042H.grib2 2026-04-12 04:23 623K
20260412T00Z_MSC_GDPS_GeopotentialHeight_IsbL-0150_LatLon0.15_PT042H.grib2 2026-04-12 04:23 643K
20260412T00Z_MSC_GDPS_GeopotentialHeight_IsbL-0175_LatLon0.15_PT042H.grib2 2026-04-12 04:23 645K
20260412T00Z_MSC_GDPS_GeopotentialHeight_IsbL-0200_LatLon0.15_PT042H.grib2 2026-04-12 04:23 648K
20260412T00Z_MSC_GDPS_GeopotentialHeight_IsbL-0225_LatLon0.15_PT042H.grib2 2026-04-12 04:23 644K
20260412T00Z_MSC_GDPS_GeopotentialHeight_IsbL-0250_LatLon0.15_PT042H.grib2 2026-04-12 04:23 652K
20260412T00Z_MSC_GDPS_GeopotentialHeight_IsbL-0275_LatLon0.15_PT042H.grib2 2026-04-12 04:23 649K
20260412T00Z_MSC_GDPS_GeopotentialHeight_IsbL-0300_LatLon0.15_PT042H.grib2 2026-04-12 04:23 648K
20260412T00Z_MSC_GDPS_GeopotentialHeight_IsbL-0350_LatLon0.15_PT042H.grib2 2026-04-12 04:23 635K
20260412T00Z_MSC_GDPS_GeopotentialHeight_IsbL-0400_LatLon0.15_PT042H.grib2 2026-04-12 04:23 625K
20260412T00Z_MSC_GDPS_GeopotentialHeight_IsbL-0450_LatLon0.15_PT042H.grib2 2026-04-12 04:23 545K
20260412T00Z_MSC_GDPS_GeopotentialHeight_IsbL-0500_LatLon0.15_PT042H.grib2 2026-04-12 04:23 535K
20260412T00Z_MSC_GDPS_GeopotentialHeight_IsbL-0550_LatLon0.15_PT042H.grib2 2026-04-12 04:23 527K
20260412T00Z_MSC_GDPS_GeopotentialHeight_IsbL-0600_LatLon0.15_PT042H.grib2 2026-04-12 04:23 692K
20260412T00Z_MSC_GDPS_GeopotentialHeight_IsbL-0650_LatLon0.15_PT042H.grib2 2026-04-12 04:23 691K
20260412T00Z_MSC_GDPS_GeopotentialHeight_IsbL-0700_LatLon0.15_PT042H.grib2 2026-04-12 04:23 693K
20260412T00Z_MSC_GDPS_GeopotentialHeight_IsbL-0750_LatLon0.15_PT042H.grib2 2026-04-12 04:23 698K
20260412T00Z_MSC_GDPS_GeopotentialHeight_IsbL-0800_LatLon0.15_PT042H.grib2 2026-04-12 04:23 707K
20260412T00Z_MSC_GDPS_GeopotentialHeight_IsbL-0850_LatLon0.15_PT042H.grib2 2026-04-12 04:23 712K
20260412T00Z_MSC_GDPS_GeopotentialHeight_IsbL-0875_LatLon0.15_PT042H.grib2 2026-04-12 04:23 717K
20260412T00Z_MSC_GDPS_GeopotentialHeight_IsbL-0900_LatLon0.15_PT042H.grib2 2026-04-12 04:23 727K
20260412T00Z_MSC_GDPS_GeopotentialHeight_IsbL-0925_LatLon0.15_PT042H.grib2 2026-04-12 04:23 734K
20260412T00Z_MSC_GDPS_GeopotentialHeight_IsbL-0950_LatLon0.15_PT042H.grib2 2026-04-12 04:23 741K
20260412T00Z_MSC_GDPS_GeopotentialHeight_IsbL-0970_LatLon0.15_PT042H.grib2 2026-04-12 04:23 751K
20260412T00Z_MSC_GDPS_GeopotentialHeight_IsbL-0985_LatLon0.15_PT042H.grib2 2026-04-12 04:23 766K
20260412T00Z_MSC_GDPS_GeopotentialHeight_IsbL-1000_LatLon0.15_PT042H.grib2 2026-04-12 04:23 785K
20260412T00Z_MSC_GDPS_GeopotentialHeight_IsbL-1015_LatLon0.15_PT042H.grib2 2026-04-12 04:23 807K
20260412T00Z_MSC_GDPS_Humidex_Sfc_LatLon0.15_PT042H.grib2 2026-04-12 04:23 5.3M
20260412T00Z_MSC_GDPS_IcePellets-Accum12h_Sfc_LatLon0.15_PT042H.grib2 2026-04-12 04:23 33K
20260412T00Z_MSC_GDPS_IcePellets-Accum1h_Sfc_LatLon0.15_PT042H.grib2 2026-04-12 04:23 12K
20260412T00Z_MSC_GDPS_IcePellets-Accum24h_Sfc_LatLon0.15_PT042H.grib2 2026-04-12 04:23 45K
20260412T00Z_MSC_GDPS_IcePellets-Accum3h_Sfc_LatLon0.15_PT042H.grib2 2026-04-12 04:23 17K
20260412T00Z_MSC_GDPS_IcePellets-Accum6h_Sfc_LatLon0.15_PT042H.grib2 2026-04-12 04:23 26K
20260412T00Z_MSC_GDPS_IcePellets-Accum_Sfc_LatLon0.15_PT042H.grib2 2026-04-12 04:23 66K
20260412T00Z_MSC_GDPS_KIndex_Sfc_LatLon0.15_PT042H.grib2 2026-04-12 04:23 6.5M
20260412T00Z_MSC_GDPS_LatentHeatNetFlux_Sfc_LatLon0.15_PT042H.grib2 2026-04-12 04:23 501K
20260412T00Z_MSC_GDPS_LiftedIndex-MU-VT_IsbL-0500_LatLon0.15_PT042H.grib2 2026-04-12 04:23 5.4M
20260412T00Z_MSC_GDPS_NetLongwaveRadiationFlux-Accum_Sfc_LatLon0.15_PT042H.grib2 2026-04-12 04:23 1.1M
20260412T00Z_MSC_GDPS_NetShortwaveRadiationFlux-Accum_Sfc_LatLon0.15_PT042H.grib2 2026-04-12 04:23 1.0M
20260412T00Z_MSC_GDPS_O3MixingRatio_LatLon0.15_PT042H.grib2 2026-04-12 05:05 2.0M
20260412T00Z_MSC_GDPS_O3_EAtm_LatLon0.15_PT042H.grib2 2026-04-12 05:05 2.1M
20260412T00Z_MSC_GDPS_PlanetaryBoundaryLayerHeight_Sfc_LatLon0.15_PT042H.grib2 2026-04-12 04:23 2.4M
20260412T00Z_MSC_GDPS_Precip-Accum12h_Sfc_LatLon0.15_PT042H.grib2 2026-04-12 04:23 4.0M
20260412T00Z_MSC_GDPS_Precip-Accum1h_Sfc_LatLon0.15_PT042H.grib2 2026-04-12 04:23 3.1M
20260412T00Z_MSC_GDPS_Precip-Accum24h_Sfc_LatLon0.15_PT042H.grib2 2026-04-12 04:23 4.5M
20260412T00Z_MSC_GDPS_Precip-Accum3h_Sfc_LatLon0.15_PT042H.grib2 2026-04-12 04:23 3.4M
20260412T00Z_MSC_GDPS_Precip-Accum6h_Sfc_LatLon0.15_PT042H.grib2 2026-04-12 04:23 3.8M
20260412T00Z_MSC_GDPS_Precip-Accum_Sfc_LatLon0.15_PT042H.grib2 2026-04-12 04:23 4.4M
20260412T00Z_MSC_GDPS_PrecipRate_Sfc_LatLon0.15_PT042H.grib2 2026-04-12 04:23 2.8M
20260412T00Z_MSC_GDPS_PrecipType-Instant_Sfc_LatLon0.15_PT042H.grib2 2026-04-12 04:23 1.5M
20260412T00Z_MSC_GDPS_Pressure_MSL_LatLon0.15_PT042H.grib2 2026-04-12 04:23 821K
20260412T00Z_MSC_GDPS_Pressure_PVU-1.5_LatLon0.15_PT042H.grib2 2026-04-12 04:23 5.7M
20260412T00Z_MSC_GDPS_Pressure_PVU-1_LatLon0.15_PT042H.grib2 2026-04-12 04:23 6.0M
20260412T00Z_MSC_GDPS_Pressure_PVU-2_LatLon0.15_PT042H.grib2 2026-04-12 04:23 5.6M
20260412T00Z_MSC_GDPS_Pressure_Sfc_LatLon0.15_PT042H.grib2 2026-04-12 04:23 1.1M
20260412T00Z_MSC_GDPS_RadiativeTemp_Sfc_LatLon0.15_PT042H.grib2 2026-04-12 04:23 668K
20260412T00Z_MSC_GDPS_Rain-Accum12h_Sfc_LatLon0.15_PT042H.grib2 2026-04-12 04:23 2.6M
20260412T00Z_MSC_GDPS_Rain-Accum1h_Sfc_LatLon0.15_PT042H.grib2 2026-04-12 04:23 1.6M
20260412T00Z_MSC_GDPS_Rain-Accum24h_Sfc_LatLon0.15_PT042H.grib2 2026-04-12 04:23 3.0M
20260412T00Z_MSC_GDPS_Rain-Accum3h_Sfc_LatLon0.15_PT042H.grib2 2026-04-12 04:23 1.6M
20260412T00Z_MSC_GDPS_Rain-Accum6h_Sfc_LatLon0.15_PT042H.grib2 2026-04-12 04:23 2.4M
20260412T00Z_MSC_GDPS_Rain-Accum_Sfc_LatLon0.15_PT042H.grib2 2026-04-12 04:23 3.2M
20260412T00Z_MSC_GDPS_RelativeHumidity_AGL-2m_LatLon0.15_PT042H.grib2 2026-04-12 04:23 1.0M
20260412T00Z_MSC_GDPS_RelativeHumidity_IsbL-0010_LatLon0.15_PT042H.grib2 2026-04-12 04:23 243K
20260412T00Z_MSC_GDPS_RelativeHumidity_IsbL-0020_LatLon0.15_PT042H.grib2 2026-04-12 04:23 396K
20260412T00Z_MSC_GDPS_RelativeHumidity_IsbL-0030_LatLon0.15_PT042H.grib2 2026-04-12 04:23 531K
20260412T00Z_MSC_GDPS_RelativeHumidity_IsbL-0050_LatLon0.15_PT042H.grib2 2026-04-12 04:23 418K
20260412T00Z_MSC_GDPS_RelativeHumidity_IsbL-0100_LatLon0.15_PT042H.grib2 2026-04-12 04:23 500K
20260412T00Z_MSC_GDPS_RelativeHumidity_IsbL-0150_LatLon0.15_PT042H.grib2 2026-04-12 04:23 654K
20260412T00Z_MSC_GDPS_RelativeHumidity_IsbL-0175_LatLon0.15_PT042H.grib2 2026-04-12 04:23 770K
20260412T00Z_MSC_GDPS_RelativeHumidity_IsbL-0200_LatLon0.15_PT042H.grib2 2026-04-12 04:23 677K
20260412T00Z_MSC_GDPS_RelativeHumidity_IsbL-0225_LatLon0.15_PT042H.grib2 2026-04-12 04:23 771K
20260412T00Z_MSC_GDPS_RelativeHumidity_IsbL-0250_LatLon0.15_PT042H.grib2 2026-04-12 04:23 859K
20260412T00Z_MSC_GDPS_RelativeHumidity_IsbL-0275_LatLon0.15_PT042H.grib2 2026-04-12 04:23 881K
20260412T00Z_MSC_GDPS_RelativeHumidity_IsbL-0300_LatLon0.15_PT042H.grib2 2026-04-12 04:23 928K
20260412T00Z_MSC_GDPS_RelativeHumidity_IsbL-0350_LatLon0.15_PT042H.grib2 2026-04-12 04:23 956K
20260412T00Z_MSC_GDPS_RelativeHumidity_IsbL-0400_LatLon0.15_PT042H.grib2 2026-04-12 04:23 1.0M
20260412T00Z_MSC_GDPS_RelativeHumidity_IsbL-0450_LatLon0.15_PT042H.grib2 2026-04-12 04:23 1.0M
20260412T00Z_MSC_GDPS_RelativeHumidity_IsbL-0500_LatLon0.15_PT042H.grib2 2026-04-12 04:23 1.0M
20260412T00Z_MSC_GDPS_RelativeHumidity_IsbL-0550_LatLon0.15_PT042H.grib2 2026-04-12 04:23 1.0M
20260412T00Z_MSC_GDPS_RelativeHumidity_IsbL-0600_LatLon0.15_PT042H.grib2 2026-04-12 04:23 1.1M
20260412T00Z_MSC_GDPS_RelativeHumidity_IsbL-0650_LatLon0.15_PT042H.grib2 2026-04-12 04:23 1.1M
20260412T00Z_MSC_GDPS_RelativeHumidity_IsbL-0700_LatLon0.15_PT042H.grib2 2026-04-12 04:23 1.1M
20260412T00Z_MSC_GDPS_RelativeHumidity_IsbL-0750_LatLon0.15_PT042H.grib2 2026-04-12 04:23 1.2M
20260412T00Z_MSC_GDPS_RelativeHumidity_IsbL-0800_LatLon0.15_PT042H.grib2 2026-04-12 04:23 1.2M
20260412T00Z_MSC_GDPS_RelativeHumidity_IsbL-0850_LatLon0.15_PT042H.grib2 2026-04-12 04:23 1.3M
20260412T00Z_MSC_GDPS_RelativeHumidity_IsbL-0875_LatLon0.15_PT042H.grib2 2026-04-12 04:23 1.3M
20260412T00Z_MSC_GDPS_RelativeHumidity_IsbL-0900_LatLon0.15_PT042H.grib2 2026-04-12 04:23 1.2M
20260412T00Z_MSC_GDPS_RelativeHumidity_IsbL-0925_LatLon0.15_PT042H.grib2 2026-04-12 04:23 1.2M
20260412T00Z_MSC_GDPS_RelativeHumidity_IsbL-0950_LatLon0.15_PT042H.grib2 2026-04-12 04:23 1.2M
20260412T00Z_MSC_GDPS_RelativeHumidity_IsbL-0970_LatLon0.15_PT042H.grib2 2026-04-12 04:23 1.2M
20260412T00Z_MSC_GDPS_RelativeHumidity_IsbL-0985_LatLon0.15_PT042H.grib2 2026-04-12 04:23 1.1M
20260412T00Z_MSC_GDPS_RelativeHumidity_IsbL-1000_LatLon0.15_PT042H.grib2 2026-04-12 04:23 1.1M
20260412T00Z_MSC_GDPS_RelativeHumidity_IsbL-1015_LatLon0.15_PT042H.grib2 2026-04-12 04:23 1.0M
20260412T00Z_MSC_GDPS_RelativeVorticity_IsbL-0200_LatLon0.15_PT042H.grib2 2026-04-12 04:23 1.2M
20260412T00Z_MSC_GDPS_RelativeVorticity_IsbL-0250_LatLon0.15_PT042H.grib2 2026-04-12 04:23 1.3M
20260412T00Z_MSC_GDPS_RelativeVorticity_IsbL-0500_LatLon0.15_PT042H.grib2 2026-04-12 04:23 1.2M
20260412T00Z_MSC_GDPS_RelativeVorticity_IsbL-0700_LatLon0.15_PT042H.grib2 2026-04-12 04:23 1.3M
20260412T00Z_MSC_GDPS_RelativeVorticity_IsbL-0850_LatLon0.15_PT042H.grib2 2026-04-12 04:23 1.6M
20260412T00Z_MSC_GDPS_Runoff-Accum_Sfc_LatLon0.15_PT042H.grib2 2026-04-12 04:23 128K
20260412T00Z_MSC_GDPS_SensibleHeatNetFlux_Sfc_LatLon0.15_PT042H.grib2 2026-04-12 04:23 618K
20260412T00Z_MSC_GDPS_ShowalterIndex_IsbL-0500_LatLon0.15_PT042H.grib2 2026-04-12 04:23 6.2M
20260412T00Z_MSC_GDPS_Snow-Accum12h_Sfc_LatLon0.15_PT042H.grib2 2026-04-12 04:23 1.3M
20260412T00Z_MSC_GDPS_Snow-Accum1h_Sfc_LatLon0.15_PT042H.grib2 2026-04-12 04:23 830K
20260412T00Z_MSC_GDPS_Snow-Accum24h_Sfc_LatLon0.15_PT042H.grib2 2026-04-12 04:23 1.4M
20260412T00Z_MSC_GDPS_Snow-Accum3h_Sfc_LatLon0.15_PT042H.grib2 2026-04-12 04:23 920K
20260412T00Z_MSC_GDPS_Snow-Accum6h_Sfc_LatLon0.15_PT042H.grib2 2026-04-12 04:23 1.3M
20260412T00Z_MSC_GDPS_Snow-Accum_Sfc_LatLon0.15_PT042H.grib2 2026-04-12 04:23 1.8M
20260412T00Z_MSC_GDPS_SnowDensity_Sfc_LatLon0.15_PT042H.grib2 2026-04-12 04:23 267K
20260412T00Z_MSC_GDPS_SnowDepth_Sfc_LatLon0.15_PT042H.grib2 2026-04-12 04:23 1.8M
20260412T00Z_MSC_GDPS_SoilTemp_DBS-0to10cm_LatLon0.15_PT042H.grib2 2026-04-12 04:23 502K
20260412T00Z_MSC_GDPS_SoilTemp_Sfc_LatLon0.15_PT042H.grib2 2026-04-12 04:23 580K
20260412T00Z_MSC_GDPS_SoilVolumetricIceContent_Sfc_LatLon0.15_PT042H.grib2 2026-04-12 04:23 228K
20260412T00Z_MSC_GDPS_SoilVolumetricWaterContent_DBS-0to10cm_LatLon0.15_PT042H.grib2 2026-04-12 04:23 551K
20260412T00Z_MSC_GDPS_SoilVolumetricWaterContent_DBS-0to1cm_LatLon0.15_PT042H.grib2 2026-04-12 04:23 651K
20260412T00Z_MSC_GDPS_SpecificHumidity_AGL-120m_LatLon0.15_PT042H.grib2 2026-04-12 04:23 1.1M
20260412T00Z_MSC_GDPS_SpecificHumidity_AGL-2m_LatLon0.15_PT042H.grib2 2026-04-12 04:23 1.2M
20260412T00Z_MSC_GDPS_SpecificHumidity_AGL-40m_LatLon0.15_PT042H.grib2 2026-04-12 04:23 1.1M
20260412T00Z_MSC_GDPS_SpecificHumidity_AGL-80m_LatLon0.15_PT042H.grib2 2026-04-12 04:23 1.1M
20260412T00Z_MSC_GDPS_SpecificHumidity_IsbL-0001_LatLon0.15_PT042H.grib2 2026-04-12 04:23 1.2M
20260412T00Z_MSC_GDPS_SpecificHumidity_IsbL-0005_LatLon0.15_PT042H.grib2 2026-04-12 04:23 1.2M
20260412T00Z_MSC_GDPS_SpecificHumidity_IsbL-0010_LatLon0.15_PT042H.grib2 2026-04-12 04:23 1.3M
20260412T00Z_MSC_GDPS_SpecificHumidity_IsbL-0020_LatLon0.15_PT042H.grib2 2026-04-12 04:23 1.4M
20260412T00Z_MSC_GDPS_SpecificHumidity_IsbL-0030_LatLon0.15_PT042H.grib2 2026-04-12 04:23 1.4M
20260412T00Z_MSC_GDPS_SpecificHumidity_IsbL-0050_LatLon0.15_PT042H.grib2 2026-04-12 04:23 1.4M
20260412T00Z_MSC_GDPS_SpecificHumidity_IsbL-0100_LatLon0.15_PT042H.grib2 2026-04-12 04:23 1.3M
20260412T00Z_MSC_GDPS_SpecificHumidity_IsbL-0150_LatLon0.15_PT042H.grib2 2026-04-12 04:23 1.3M
20260412T00Z_MSC_GDPS_SpecificHumidity_IsbL-0175_LatLon0.15_PT042H.grib2 2026-04-12 04:23 1.0M
20260412T00Z_MSC_GDPS_SpecificHumidity_IsbL-0200_LatLon0.15_PT042H.grib2 2026-04-12 04:23 1.0M
20260412T00Z_MSC_GDPS_SpecificHumidity_IsbL-0225_LatLon0.15_PT042H.grib2 2026-04-12 04:23 1.2M
20260412T00Z_MSC_GDPS_SpecificHumidity_IsbL-0250_LatLon0.15_PT042H.grib2 2026-04-12 04:23 1.2M
20260412T00Z_MSC_GDPS_SpecificHumidity_IsbL-0275_LatLon0.15_PT042H.grib2 2026-04-12 04:23 1.1M
20260412T00Z_MSC_GDPS_SpecificHumidity_IsbL-0300_LatLon0.15_PT042H.grib2 2026-04-12 04:23 1.2M
20260412T00Z_MSC_GDPS_SpecificHumidity_IsbL-0350_LatLon0.15_PT042H.grib2 2026-04-12 04:23 1.2M
20260412T00Z_MSC_GDPS_SpecificHumidity_IsbL-0400_LatLon0.15_PT042H.grib2 2026-04-12 04:23 1.4M
20260412T00Z_MSC_GDPS_SpecificHumidity_IsbL-0450_LatLon0.15_PT042H.grib2 2026-04-12 04:23 1.3M
20260412T00Z_MSC_GDPS_SpecificHumidity_IsbL-0500_LatLon0.15_PT042H.grib2 2026-04-12 04:23 1.5M
20260412T00Z_MSC_GDPS_SpecificHumidity_IsbL-0550_LatLon0.15_PT042H.grib2 2026-04-12 04:23 1.3M
20260412T00Z_MSC_GDPS_SpecificHumidity_IsbL-0600_LatLon0.15_PT042H.grib2 2026-04-12 04:23 1.4M
20260412T00Z_MSC_GDPS_SpecificHumidity_IsbL-0650_LatLon0.15_PT042H.grib2 2026-04-12 04:23 1.5M
20260412T00Z_MSC_GDPS_SpecificHumidity_IsbL-0700_LatLon0.15_PT042H.grib2 2026-04-12 04:23 1.6M
20260412T00Z_MSC_GDPS_SpecificHumidity_IsbL-0750_LatLon0.15_PT042H.grib2 2026-04-12 04:23 1.7M
20260412T00Z_MSC_GDPS_SpecificHumidity_IsbL-0800_LatLon0.15_PT042H.grib2 2026-04-12 04:23 1.8M
20260412T00Z_MSC_GDPS_SpecificHumidity_IsbL-0850_LatLon0.15_PT042H.grib2 2026-04-12 04:23 1.9M
20260412T00Z_MSC_GDPS_SpecificHumidity_IsbL-0875_LatLon0.15_PT042H.grib2 2026-04-12 04:23 1.9M
20260412T00Z_MSC_GDPS_SpecificHumidity_IsbL-0900_LatLon0.15_PT042H.grib2 2026-04-12 04:23 1.9M
20260412T00Z_MSC_GDPS_SpecificHumidity_IsbL-0925_LatLon0.15_PT042H.grib2 2026-04-12 04:23 1.6M
20260412T00Z_MSC_GDPS_SpecificHumidity_IsbL-0950_LatLon0.15_PT042H.grib2 2026-04-12 04:23 1.5M
20260412T00Z_MSC_GDPS_SpecificHumidity_IsbL-0970_LatLon0.15_PT042H.grib2 2026-04-12 04:23 1.5M
20260412T00Z_MSC_GDPS_SpecificHumidity_IsbL-0985_LatLon0.15_PT042H.grib2 2026-04-12 04:23 1.5M
20260412T00Z_MSC_GDPS_SpecificHumidity_IsbL-1000_LatLon0.15_PT042H.grib2 2026-04-12 04:23 1.5M
20260412T00Z_MSC_GDPS_SpecificHumidity_IsbL-1015_LatLon0.15_PT042H.grib2 2026-04-12 04:23 1.4M
20260412T00Z_MSC_GDPS_SpecificHumidity_Sfc_LatLon0.15_PT042H.grib2 2026-04-12 04:23 654K
20260412T00Z_MSC_GDPS_Thickness_IsbL-0850to0700_LatLon0.15_PT042H.grib2 2026-04-12 04:23 471K
20260412T00Z_MSC_GDPS_Thickness_IsbL-1000to0500_LatLon0.15_PT042H.grib2 2026-04-12 04:23 375K
20260412T00Z_MSC_GDPS_Thickness_IsbL-1000to0850_LatLon0.15_PT042H.grib2 2026-04-12 04:23 491K
20260412T00Z_MSC_GDPS_TotalCloudCover_Sfc_LatLon0.15_PT042H.grib2 2026-04-12 04:23 820K
20260412T00Z_MSC_GDPS_TotalTotalsIndex_Sfc_LatLon0.15_PT042H.grib2 2026-04-12 04:23 6.2M
20260412T00Z_MSC_GDPS_UVIndex-ClearSky-Max24h_Sfc_LatLon0.15_PT042H.grib2 2026-04-12 05:05 2.3M
20260412T00Z_MSC_GDPS_UVIndex-ClearSky_Sfc_LatLon0.15_PT042H.grib2 2026-04-12 05:05 1.0M
20260412T00Z_MSC_GDPS_UVIndex-Max24h_Sfc_LatLon0.15_PT042H.grib2 2026-04-12 05:05 3.2M
20260412T00Z_MSC_GDPS_UVIndex_Sfc_LatLon0.15_PT042H.grib2 2026-04-12 05:05 1.5M
20260412T00Z_MSC_GDPS_UpwardLongwaveRadiationFlux_NTAtm_LatLon0.15_PT042H.grib2 2026-04-12 04:23 827K
20260412T00Z_MSC_GDPS_VerticalVelocity_IsbL-0200_LatLon0.15_PT042H.grib2 2026-04-12 04:23 949K
20260412T00Z_MSC_GDPS_VerticalVelocity_IsbL-0250_LatLon0.15_PT042H.grib2 2026-04-12 04:23 1.1M
20260412T00Z_MSC_GDPS_VerticalVelocity_IsbL-0500_LatLon0.15_PT042H.grib2 2026-04-12 04:23 1.0M
20260412T00Z_MSC_GDPS_VerticalVelocity_IsbL-0600_LatLon0.15_PT042H.grib2 2026-04-12 04:23 1.1M
20260412T00Z_MSC_GDPS_VerticalVelocity_IsbL-0700_LatLon0.15_PT042H.grib2 2026-04-12 04:23 1.1M
20260412T00Z_MSC_GDPS_VerticalVelocity_IsbL-0850_LatLon0.15_PT042H.grib2 2026-04-12 04:23 1.3M
20260412T00Z_MSC_GDPS_WindChill_Sfc_LatLon0.15_PT042H.grib2 2026-04-12 04:23 5.4M
20260412T00Z_MSC_GDPS_WindDir_AGL-10m_LatLon0.15_PT042H.grib2 2026-04-12 04:23 1.3M
20260412T00Z_MSC_GDPS_WindDir_AGL-120m_LatLon0.15_PT042H.grib2 2026-04-12 04:23 1.4M
20260412T00Z_MSC_GDPS_WindDir_AGL-40m_LatLon0.15_PT042H.grib2 2026-04-12 04:23 1.4M
20260412T00Z_MSC_GDPS_WindDir_AGL-80m_LatLon0.15_PT042H.grib2 2026-04-12 04:23 1.4M
20260412T00Z_MSC_GDPS_WindDir_IsbL-0001_LatLon0.15_PT042H.grib2 2026-04-12 04:23 636K
20260412T00Z_MSC_GDPS_WindDir_IsbL-0005_LatLon0.15_PT042H.grib2 2026-04-12 04:23 788K
20260412T00Z_MSC_GDPS_WindDir_IsbL-0010_LatLon0.15_PT042H.grib2 2026-04-12 04:23 852K
20260412T00Z_MSC_GDPS_WindDir_IsbL-0020_LatLon0.15_PT042H.grib2 2026-04-12 04:23 931K
20260412T00Z_MSC_GDPS_WindDir_IsbL-0030_LatLon0.15_PT042H.grib2 2026-04-12 04:23 882K
20260412T00Z_MSC_GDPS_WindDir_IsbL-0050_LatLon0.15_PT042H.grib2 2026-04-12 04:23 945K
20260412T00Z_MSC_GDPS_WindDir_IsbL-0100_LatLon0.15_PT042H.grib2 2026-04-12 04:23 1.0M
20260412T00Z_MSC_GDPS_WindDir_IsbL-0150_LatLon0.15_PT042H.grib2 2026-04-12 04:23 1.0M
20260412T00Z_MSC_GDPS_WindDir_IsbL-0175_LatLon0.15_PT042H.grib2 2026-04-12 04:23 1.0M
20260412T00Z_MSC_GDPS_WindDir_IsbL-0200_LatLon0.15_PT042H.grib2 2026-04-12 04:23 1.1M
20260412T00Z_MSC_GDPS_WindDir_IsbL-0225_LatLon0.15_PT042H.grib2 2026-04-12 04:23 1.1M
20260412T00Z_MSC_GDPS_WindDir_IsbL-0250_LatLon0.15_PT042H.grib2 2026-04-12 04:23 1.1M
20260412T00Z_MSC_GDPS_WindDir_IsbL-0275_LatLon0.15_PT042H.grib2 2026-04-12 04:23 1.2M
20260412T00Z_MSC_GDPS_WindDir_IsbL-0300_LatLon0.15_PT042H.grib2 2026-04-12 04:23 1.2M
20260412T00Z_MSC_GDPS_WindDir_IsbL-0350_LatLon0.15_PT042H.grib2 2026-04-12 04:23 1.2M
20260412T00Z_MSC_GDPS_WindDir_IsbL-0400_LatLon0.15_PT042H.grib2 2026-04-12 04:23 1.3M
20260412T00Z_MSC_GDPS_WindDir_IsbL-0450_LatLon0.15_PT042H.grib2 2026-04-12 04:23 1.3M
20260412T00Z_MSC_GDPS_WindDir_IsbL-0500_LatLon0.15_PT042H.grib2 2026-04-12 04:23 1.3M
20260412T00Z_MSC_GDPS_WindDir_IsbL-0550_LatLon0.15_PT042H.grib2 2026-04-12 04:23 1.4M
20260412T00Z_MSC_GDPS_WindDir_IsbL-0600_LatLon0.15_PT042H.grib2 2026-04-12 04:23 1.4M
20260412T00Z_MSC_GDPS_WindDir_IsbL-0650_LatLon0.15_PT042H.grib2 2026-04-12 04:23 1.5M
20260412T00Z_MSC_GDPS_WindDir_IsbL-0700_LatLon0.15_PT042H.grib2 2026-04-12 04:23 1.6M
20260412T00Z_MSC_GDPS_WindDir_IsbL-0750_LatLon0.15_PT042H.grib2 2026-04-12 04:23 1.7M
20260412T00Z_MSC_GDPS_WindDir_IsbL-0800_LatLon0.15_PT042H.grib2 2026-04-12 04:23 1.8M
20260412T00Z_MSC_GDPS_WindDir_IsbL-0850_LatLon0.15_PT042H.grib2 2026-04-12 04:23 1.9M
20260412T00Z_MSC_GDPS_WindDir_IsbL-0875_LatLon0.15_PT042H.grib2 2026-04-12 04:23 1.9M
20260412T00Z_MSC_GDPS_WindDir_IsbL-0900_LatLon0.15_PT042H.grib2 2026-04-12 04:23 2.0M
20260412T00Z_MSC_GDPS_WindDir_IsbL-0925_LatLon0.15_PT042H.grib2 2026-04-12 04:23 2.0M
20260412T00Z_MSC_GDPS_WindDir_IsbL-0950_LatLon0.15_PT042H.grib2 2026-04-12 04:23 2.0M
20260412T00Z_MSC_GDPS_WindDir_IsbL-0970_LatLon0.15_PT042H.grib2 2026-04-12 04:23 2.0M
20260412T00Z_MSC_GDPS_WindDir_IsbL-0985_LatLon0.15_PT042H.grib2 2026-04-12 04:23 2.0M
20260412T00Z_MSC_GDPS_WindDir_IsbL-1000_LatLon0.15_PT042H.grib2 2026-04-12 04:23 2.1M
20260412T00Z_MSC_GDPS_WindDir_IsbL-1015_LatLon0.15_PT042H.grib2 2026-04-12 04:23 2.0M
20260412T00Z_MSC_GDPS_WindGust-Max_AGL-10m_LatLon0.15_PT042H.grib2 2026-04-12 04:23 2.2M
20260412T00Z_MSC_GDPS_WindGust-Min_AGL-10m_LatLon0.15_PT042H.grib2 2026-04-12 04:23 2.2M
20260412T00Z_MSC_GDPS_WindGust_AGL-10m_LatLon0.15_PT042H.grib2 2026-04-12 04:23 2.2M
20260412T00Z_MSC_GDPS_WindSpeed_AGL-10m_LatLon0.15_PT042H.grib2 2026-04-12 04:23 1.1M
20260412T00Z_MSC_GDPS_WindSpeed_AGL-120m_LatLon0.15_PT042H.grib2 2026-04-12 04:23 1.2M
20260412T00Z_MSC_GDPS_WindSpeed_AGL-40m_LatLon0.15_PT042H.grib2 2026-04-12 04:23 1.2M
20260412T00Z_MSC_GDPS_WindSpeed_AGL-80m_LatLon0.15_PT042H.grib2 2026-04-12 04:23 1.2M
20260412T00Z_MSC_GDPS_WindSpeed_IsbL-0001_LatLon0.15_PT042H.grib2 2026-04-12 04:23 633K
20260412T00Z_MSC_GDPS_WindSpeed_IsbL-0005_LatLon0.15_PT042H.grib2 2026-04-12 04:23 690K
20260412T00Z_MSC_GDPS_WindSpeed_IsbL-0010_LatLon0.15_PT042H.grib2 2026-04-12 04:23 630K
20260412T00Z_MSC_GDPS_WindSpeed_IsbL-0020_LatLon0.15_PT042H.grib2 2026-04-12 04:23 870K
20260412T00Z_MSC_GDPS_WindSpeed_IsbL-0030_LatLon0.15_PT042H.grib2 2026-04-12 04:23 860K
20260412T00Z_MSC_GDPS_WindSpeed_IsbL-0050_LatLon0.15_PT042H.grib2 2026-04-12 04:23 915K
20260412T00Z_MSC_GDPS_WindSpeed_IsbL-0100_LatLon0.15_PT042H.grib2 2026-04-12 04:23 1.1M
20260412T00Z_MSC_GDPS_WindSpeed_IsbL-0150_LatLon0.15_PT042H.grib2 2026-04-12 04:23 1.0M
20260412T00Z_MSC_GDPS_WindSpeed_IsbL-0175_LatLon0.15_PT042H.grib2 2026-04-12 04:23 1.0M
20260412T00Z_MSC_GDPS_WindSpeed_IsbL-0200_LatLon0.15_PT042H.grib2 2026-04-12 04:23 1.1M
20260412T00Z_MSC_GDPS_WindSpeed_IsbL-0225_LatLon0.15_PT042H.grib2 2026-04-12 04:23 1.1M
20260412T00Z_MSC_GDPS_WindSpeed_IsbL-0250_LatLon0.15_PT042H.grib2 2026-04-12 04:23 1.1M
20260412T00Z_MSC_GDPS_WindSpeed_IsbL-0275_LatLon0.15_PT042H.grib2 2026-04-12 04:23 1.1M
20260412T00Z_MSC_GDPS_WindSpeed_IsbL-0300_LatLon0.15_PT042H.grib2 2026-04-12 04:23 1.1M
20260412T00Z_MSC_GDPS_WindSpeed_IsbL-0350_LatLon0.15_PT042H.grib2 2026-04-12 04:23 1.1M
20260412T00Z_MSC_GDPS_WindSpeed_IsbL-0400_LatLon0.15_PT042H.grib2 2026-04-12 04:23 1.1M
20260412T00Z_MSC_GDPS_WindSpeed_IsbL-0450_LatLon0.15_PT042H.grib2 2026-04-12 04:23 1.1M
20260412T00Z_MSC_GDPS_WindSpeed_IsbL-0500_LatLon0.15_PT042H.grib2 2026-04-12 04:23 1.1M
20260412T00Z_MSC_GDPS_WindSpeed_IsbL-0550_LatLon0.15_PT042H.grib2 2026-04-12 04:23 1.1M
20260412T00Z_MSC_GDPS_WindSpeed_IsbL-0600_LatLon0.15_PT042H.grib2 2026-04-12 04:23 1.1M
20260412T00Z_MSC_GDPS_WindSpeed_IsbL-0650_LatLon0.15_PT042H.grib2 2026-04-12 04:23 1.4M
20260412T00Z_MSC_GDPS_WindSpeed_IsbL-0700_LatLon0.15_PT042H.grib2 2026-04-12 04:23 1.5M
20260412T00Z_MSC_GDPS_WindSpeed_IsbL-0750_LatLon0.15_PT042H.grib2 2026-04-12 04:23 1.5M
20260412T00Z_MSC_GDPS_WindSpeed_IsbL-0800_LatLon0.15_PT042H.grib2 2026-04-12 04:23 1.6M
20260412T00Z_MSC_GDPS_WindSpeed_IsbL-0850_LatLon0.15_PT042H.grib2 2026-04-12 04:23 1.7M
20260412T00Z_MSC_GDPS_WindSpeed_IsbL-0875_LatLon0.15_PT042H.grib2 2026-04-12 04:23 1.8M
20260412T00Z_MSC_GDPS_WindSpeed_IsbL-0900_LatLon0.15_PT042H.grib2 2026-04-12 04:23 1.8M
20260412T00Z_MSC_GDPS_WindSpeed_IsbL-0925_LatLon0.15_PT042H.grib2 2026-04-12 04:23 1.9M
20260412T00Z_MSC_GDPS_WindSpeed_IsbL-0950_LatLon0.15_PT042H.grib2 2026-04-12 04:23 1.9M
20260412T00Z_MSC_GDPS_WindSpeed_IsbL-0970_LatLon0.15_PT042H.grib2 2026-04-12 04:23 1.9M
20260412T00Z_MSC_GDPS_WindSpeed_IsbL-0985_LatLon0.15_PT042H.grib2 2026-04-12 04:23 1.9M
20260412T00Z_MSC_GDPS_WindSpeed_IsbL-1000_LatLon0.15_PT042H.grib2 2026-04-12 04:23 1.9M
20260412T00Z_MSC_GDPS_WindSpeed_IsbL-1015_LatLon0.15_PT042H.grib2 2026-04-12 04:23 1.8M
20260412T00Z_MSC_GDPS_WindU_AGL-10m_LatLon0.15_PT042H.grib2 2026-04-12 04:23 1.3M
20260412T00Z_MSC_GDPS_WindU_AGL-120m_LatLon0.15_PT042H.grib2 2026-04-12 04:23 1.0M
20260412T00Z_MSC_GDPS_WindU_AGL-40m_LatLon0.15_PT042H.grib2 2026-04-12 04:23 971K
20260412T00Z_MSC_GDPS_WindU_AGL-80m_LatLon0.15_PT042H.grib2 2026-04-12 04:23 1.0M
20260412T00Z_MSC_GDPS_WindU_IsbL-0001_LatLon0.15_PT042H.grib2 2026-04-12 04:23 495K
20260412T00Z_MSC_GDPS_WindU_IsbL-0005_LatLon0.15_PT042H.grib2 2026-04-12 04:23 688K
20260412T00Z_MSC_GDPS_WindU_IsbL-0010_LatLon0.15_PT042H.grib2 2026-04-12 04:23 705K
20260412T00Z_MSC_GDPS_WindU_IsbL-0020_LatLon0.15_PT042H.grib2 2026-04-12 04:23 744K
20260412T00Z_MSC_GDPS_WindU_IsbL-0030_LatLon0.15_PT042H.grib2 2026-04-12 04:23 740K
20260412T00Z_MSC_GDPS_WindU_IsbL-0050_LatLon0.15_PT042H.grib2 2026-04-12 04:23 706K
20260412T00Z_MSC_GDPS_WindU_IsbL-0100_LatLon0.15_PT042H.grib2 2026-04-12 04:23 935K
20260412T00Z_MSC_GDPS_WindU_IsbL-0150_LatLon0.15_PT042H.grib2 2026-04-12 04:23 1.0M
20260412T00Z_MSC_GDPS_WindU_IsbL-0175_LatLon0.15_PT042H.grib2 2026-04-12 04:23 1.0M
20260412T00Z_MSC_GDPS_WindU_IsbL-0200_LatLon0.15_PT042H.grib2 2026-04-12 04:23 1.1M
20260412T00Z_MSC_GDPS_WindU_IsbL-0225_LatLon0.15_PT042H.grib2 2026-04-12 04:23 856K
20260412T00Z_MSC_GDPS_WindU_IsbL-0250_LatLon0.15_PT042H.grib2 2026-04-12 04:23 857K
20260412T00Z_MSC_GDPS_WindU_IsbL-0275_LatLon0.15_PT042H.grib2 2026-04-12 04:23 884K
20260412T00Z_MSC_GDPS_WindU_IsbL-0300_LatLon0.15_PT042H.grib2 2026-04-12 04:23 875K
20260412T00Z_MSC_GDPS_WindU_IsbL-0350_LatLon0.15_PT042H.grib2 2026-04-12 04:23 890K
20260412T00Z_MSC_GDPS_WindU_IsbL-0400_LatLon0.15_PT042H.grib2 2026-04-12 04:23 892K
20260412T00Z_MSC_GDPS_WindU_IsbL-0450_LatLon0.15_PT042H.grib2 2026-04-12 04:23 894K
20260412T00Z_MSC_GDPS_WindU_IsbL-0500_LatLon0.15_PT042H.grib2 2026-04-12 04:23 1.1M
20260412T00Z_MSC_GDPS_WindU_IsbL-0550_LatLon0.15_PT042H.grib2 2026-04-12 04:23 1.1M
20260412T00Z_MSC_GDPS_WindU_IsbL-0600_LatLon0.15_PT042H.grib2 2026-04-12 04:23 1.1M
20260412T00Z_MSC_GDPS_WindU_IsbL-0650_LatLon0.15_PT042H.grib2 2026-04-12 04:23 1.2M
20260412T00Z_MSC_GDPS_WindU_IsbL-0700_LatLon0.15_PT042H.grib2 2026-04-12 04:23 1.2M
20260412T00Z_MSC_GDPS_WindU_IsbL-0750_LatLon0.15_PT042H.grib2 2026-04-12 04:23 1.3M
20260412T00Z_MSC_GDPS_WindU_IsbL-0800_LatLon0.15_PT042H.grib2 2026-04-12 04:23 1.3M
20260412T00Z_MSC_GDPS_WindU_IsbL-0850_LatLon0.15_PT042H.grib2 2026-04-12 04:23 1.4M
20260412T00Z_MSC_GDPS_WindU_IsbL-0875_LatLon0.15_PT042H.grib2 2026-04-12 04:23 1.5M
20260412T00Z_MSC_GDPS_WindU_IsbL-0900_LatLon0.15_PT042H.grib2 2026-04-12 04:23 1.5M
20260412T00Z_MSC_GDPS_WindU_IsbL-0925_LatLon0.15_PT042H.grib2 2026-04-12 04:23 1.5M
20260412T00Z_MSC_GDPS_WindU_IsbL-0950_LatLon0.15_PT042H.grib2 2026-04-12 04:23 1.4M
20260412T00Z_MSC_GDPS_WindU_IsbL-0970_LatLon0.15_PT042H.grib2 2026-04-12 04:23 1.4M
20260412T00Z_MSC_GDPS_WindU_IsbL-0985_LatLon0.15_PT042H.grib2 2026-04-12 04:23 1.4M
20260412T00Z_MSC_GDPS_WindU_IsbL-1000_LatLon0.15_PT042H.grib2 2026-04-12 04:23 1.4M
20260412T00Z_MSC_GDPS_WindU_IsbL-1015_LatLon0.15_PT042H.grib2 2026-04-12 04:23 1.3M
20260412T00Z_MSC_GDPS_WindV_AGL-10m_LatLon0.15_PT042H.grib2 2026-04-12 04:23 1.3M
20260412T00Z_MSC_GDPS_WindV_AGL-120m_LatLon0.15_PT042H.grib2 2026-04-12 04:23 1.0M
20260412T00Z_MSC_GDPS_WindV_AGL-40m_LatLon0.15_PT042H.grib2 2026-04-12 04:23 971K
20260412T00Z_MSC_GDPS_WindV_AGL-80m_LatLon0.15_PT042H.grib2 2026-04-12 04:23 1.0M
20260412T00Z_MSC_GDPS_WindV_IsbL-0001_LatLon0.15_PT042H.grib2 2026-04-12 04:23 636K
20260412T00Z_MSC_GDPS_WindV_IsbL-0005_LatLon0.15_PT042H.grib2 2026-04-12 04:23 605K
20260412T00Z_MSC_GDPS_WindV_IsbL-0010_LatLon0.15_PT042H.grib2 2026-04-12 04:23 807K
20260412T00Z_MSC_GDPS_WindV_IsbL-0020_LatLon0.15_PT042H.grib2 2026-04-12 04:23 865K
20260412T00Z_MSC_GDPS_WindV_IsbL-0030_LatLon0.15_PT042H.grib2 2026-04-12 04:23 859K
20260412T00Z_MSC_GDPS_WindV_IsbL-0050_LatLon0.15_PT042H.grib2 2026-04-12 04:23 912K
20260412T00Z_MSC_GDPS_WindV_IsbL-0100_LatLon0.15_PT042H.grib2 2026-04-12 04:23 866K
20260412T00Z_MSC_GDPS_WindV_IsbL-0150_LatLon0.15_PT042H.grib2 2026-04-12 04:23 1.0M
20260412T00Z_MSC_GDPS_WindV_IsbL-0175_LatLon0.15_PT042H.grib2 2026-04-12 04:23 1.0M
20260412T00Z_MSC_GDPS_WindV_IsbL-0200_LatLon0.15_PT042H.grib2 2026-04-12 04:23 846K
20260412T00Z_MSC_GDPS_WindV_IsbL-0225_LatLon0.15_PT042H.grib2 2026-04-12 04:23 852K
20260412T00Z_MSC_GDPS_WindV_IsbL-0250_LatLon0.15_PT042H.grib2 2026-04-12 04:23 851K
20260412T00Z_MSC_GDPS_WindV_IsbL-0275_LatLon0.15_PT042H.grib2 2026-04-12 04:23 876K
20260412T00Z_MSC_GDPS_WindV_IsbL-0300_LatLon0.15_PT042H.grib2 2026-04-12 04:23 867K
20260412T00Z_MSC_GDPS_WindV_IsbL-0350_LatLon0.15_PT042H.grib2 2026-04-12 04:23 881K
20260412T00Z_MSC_GDPS_WindV_IsbL-0400_LatLon0.15_PT042H.grib2 2026-04-12 04:23 882K
20260412T00Z_MSC_GDPS_WindV_IsbL-0450_LatLon0.15_PT042H.grib2 2026-04-12 04:23 883K
20260412T00Z_MSC_GDPS_WindV_IsbL-0500_LatLon0.15_PT042H.grib2 2026-04-12 04:23 1.1M
20260412T00Z_MSC_GDPS_WindV_IsbL-0550_LatLon0.15_PT042H.grib2 2026-04-12 04:23 1.1M
20260412T00Z_MSC_GDPS_WindV_IsbL-0600_LatLon0.15_PT042H.grib2 2026-04-12 04:23 1.1M
20260412T00Z_MSC_GDPS_WindV_IsbL-0650_LatLon0.15_PT042H.grib2 2026-04-12 04:23 1.2M
20260412T00Z_MSC_GDPS_WindV_IsbL-0700_LatLon0.15_PT042H.grib2 2026-04-12 04:23 1.2M
20260412T00Z_MSC_GDPS_WindV_IsbL-0750_LatLon0.15_PT042H.grib2 2026-04-12 04:23 1.3M
20260412T00Z_MSC_GDPS_WindV_IsbL-0800_LatLon0.15_PT042H.grib2 2026-04-12 04:23 1.3M
20260412T00Z_MSC_GDPS_WindV_IsbL-0850_LatLon0.15_PT042H.grib2 2026-04-12 04:23 1.4M
20260412T00Z_MSC_GDPS_WindV_IsbL-0875_LatLon0.15_PT042H.grib2 2026-04-12 04:23 1.4M
20260412T00Z_MSC_GDPS_WindV_IsbL-0900_LatLon0.15_PT042H.grib2 2026-04-12 04:23 1.5M
20260412T00Z_MSC_GDPS_WindV_IsbL-0925_LatLon0.15_PT042H.grib2 2026-04-12 04:23 1.4M
20260412T00Z_MSC_GDPS_WindV_IsbL-0950_LatLon0.15_PT042H.grib2 2026-04-12 04:23 1.4M
20260412T00Z_MSC_GDPS_WindV_IsbL-0970_LatLon0.15_PT042H.grib2 2026-04-12 04:23 1.4M
20260412T00Z_MSC_GDPS_WindV_IsbL-0985_LatLon0.15_PT042H.grib2 2026-04-12 04:23 1.4M
20260412T00Z_MSC_GDPS_WindV_IsbL-1000_LatLon0.15_PT042H.grib2 2026-04-12 04:23 1.4M
20260412T00Z_MSC_GDPS_WindV_IsbL-1015_LatLon0.15_PT042H.grib2 2026-04-12 04:23 1.3M